Weather History for Gage, OK

Change the Weather History Date:

Monday, February 25, 2013

  Actual Average Record
Temperature  
Mean Temperature 30 °F -  
Max Temperature 32 °F 57 °F 85 °F (1981)
Min Temperature 28 °F 29 °F -2 °F (2003)
Degree Days  
Heating Degree Days 35    
Moisture  
Dew Point 29 °F    
Average Humidity 95    
Maximum Humidity 100    
Minimum Humidity 92    
Precipitation  
Precipitation 0.06 in - - ()
Sea Level Pressure  
Sea Level Pressure 29.79 in    
Wind  
Wind Speed 22 mph (North)    
Max Wind Speed 32 mph    
Max Gust Speed 46 mph    
Visibility 1 miles    
Events Fog , Snow    
Averages and records for this station are not official NWS values.
T = Trace of Precipitation, MM = Missing Value Source: NWS Daily Summary

Daily Weather History Graph

Daily Weather History Graph

Search for Another Location

Airport:

Trip Planner

Search our weather history database for the weather conditions in past years. The results will help you decide how hot, cold, wet, or windy it might be!

Date:

Astronomy

Feb. 25, 2013 Rise Set
Actual Time 7:14 AM CST 6:30 PM CST
Civil Twilight 6:48 AM CST 6:56 PM CST
Nautical Twilight 6:18 AM CST 7:26 PM CST
Astronomical Twilight 5:48 AM CST 7:55 PM CST
Moon 6:43 PM CST (2/25) 6:46 AM CST (2/25)
Length of Visible Light 12h 07m
Length of Day
11h 16m
Full, 100% of the Moon is Illuminated
Feb 25
Full
Feb 25
Full
Mar 4
Last Quarter
Mar 11
New
Mar 19
First Quarter

Hourly Weather History & Observations

Time (CST) Temp. Windchill Dew Point Humidity Pressure Visibility Wind Dir Wind Speed Gust Speed Precip Events Conditions
12:18 AM 32.0 °F 21.6 °F 30.2 °F 93% 29.81 in 3.0 mi North 15.0 mph 24.2 mph 0.00 in Snow Light Snow
12:42 AM 32.0 °F 20.8 °F 30.2 °F 93% 29.80 in 2.5 mi North 17.3 mph 26.5 mph 0.00 in Snow Light Snow
12:53 AM 32.0 °F 21.6 °F 30.9 °F 96% 29.83 in 2.5 mi North 15.0 mph - 0.00 in Snow Light Snow
1:12 AM 32.0 °F 21.6 °F 30.2 °F 93% 29.80 in 1.5 mi North 15.0 mph 23.0 mph 0.01 in Snow Light Snow
1:53 AM 30.9 °F 19.4 °F 30.0 °F 96% 29.83 in 0.8 mi North 17.3 mph 26.5 mph 0.03 in Snow Light Snow
2:32 AM 30.2 °F 16.5 °F 30.2 °F 100% 29.77 in 0.5 mi NNE 24.2 mph 32.2 mph 0.01 in Fog Light Freezing Fog
2:53 AM 30.9 °F 18.1 °F 30.0 °F 96% 29.77 in 1.0 mi NNE 21.9 mph 33.4 mph 0.02 in Snow Light Snow
3:26 AM 30.2 °F 16.5 °F 30.2 °F 100% 29.76 in 2.5 mi NNE 24.2 mph 31.1 mph 0.00 in Snow Light Snow
3:33 AM 30.2 °F 18.1 °F 30.2 °F 100% 29.77 in 3.0 mi NNE 18.4 mph 31.1 mph 0.00 in Snow Light Snow
3:53 AM 30.9 °F 18.1 °F 30.0 °F 96% 29.77 in 3.0 mi North 21.9 mph 29.9 mph 0.00 in Snow Light Snow
4:00 AM 30.2 °F 17.1 °F 30.2 °F 100% 29.75 in 2.0 mi North 21.9 mph 31.1 mph 0.00 in Snow Light Snow
4:08 AM 30.2 °F 18.1 °F 30.2 °F 100% 29.76 in 1.5 mi NNE 18.4 mph 28.8 mph 0.00 in Snow Light Snow
4:53 AM 30.9 °F 16.4 °F 30.0 °F 96% 29.72 in 1.0 mi North 28.8 mph 36.8 mph 0.00 in Snow Light Snow
5:02 AM 30.2 °F 15.7 °F 30.2 °F 100% 29.71 in 0.8 mi North 27.6 mph 39.1 mph 0.00 in Snow Light Snow
5:45 AM 30.2 °F 17.1 °F 28.4 °F 93% 29.76 in 0.5 mi North 21.9 mph 28.8 mph 0.00 in Fog , Snow Snow
5:53 AM 30.0 °F 16.9 °F 28.9 °F 96% 29.80 in 0.5 mi North 21.9 mph 28.8 mph 0.00 in Fog Light Freezing Fog
6:22 AM 30.2 °F 16.2 °F 28.4 °F 93% 29.75 in 1.0 mi North 25.3 mph 35.7 mph 0.00 in Snow Light Snow
6:30 AM 30.2 °F 15.9 °F 28.4 °F 93% 29.74 in 1.0 mi North 26.5 mph 33.4 mph 0.00 in Snow Light Snow
6:40 AM 30.2 °F 15.7 °F 28.4 °F 93% 29.74 in 0.8 mi North 27.6 mph 33.4 mph 0.00 in Snow Light Snow
6:53 AM 30.0 °F 15.7 °F 28.9 °F 96% 29.78 in 0.8 mi North 26.5 mph 34.5 mph 0.00 in Snow Light Snow
7:25 AM 28.4 °F 13.5 °F 28.4 °F 100% 29.73 in 0.5 mi North 26.5 mph 35.7 mph 0.00 in Fog , Snow Snow
7:53 AM 28.9 °F 14.3 °F 28.0 °F 96% 29.78 in 0.2 mi North 26.5 mph 35.7 mph 0.00 in Fog , Snow Heavy Snow
8:37 AM 28.4 °F 13.8 °F 28.4 °F 100% 29.75 in 0.2 mi NNE 25.3 mph 36.8 mph 0.01 in Fog Light Freezing Fog
8:53 AM 28.9 °F 13.7 °F 28.0 °F 96% 29.79 in 0.2 mi North 28.8 mph 36.8 mph 0.01 in Fog Light Freezing Fog
9:41 AM 28.4 °F 14.4 °F 28.4 °F 100% 29.74 in 0.2 mi NNE 23.0 mph 34.5 mph 0.00 in Fog , Snow Snow
9:53 AM 28.9 °F 14.3 °F 28.0 °F 96% 29.79 in 0.2 mi NNE 26.5 mph 34.5 mph 0.00 in Fog , Snow Heavy Snow
10:06 AM 28.4 °F 13.5 °F 28.4 °F 100% 29.75 in 0.2 mi North 26.5 mph 34.5 mph 0.00 in Fog , Snow Heavy Snow
10:53 AM 30.0 °F 16.6 °F 28.0 °F 92% 29.81 in 0.5 mi North 23.0 mph 33.4 mph 0.00 in Fog , Snow Snow
11:12 AM 30.2 °F 16.2 °F 28.4 °F 93% 29.76 in 1.0 mi North 25.3 mph 35.7 mph 0.00 in Snow Light Snow
11:35 AM 30.2 °F 15.9 °F 28.4 °F 93% 29.75 in 0.8 mi NNE 26.5 mph 36.8 mph 0.00 in Snow Light Snow
11:53 AM 30.0 °F 15.2 °F 28.0 °F 92% 29.79 in 0.8 mi North 28.8 mph 38.0 mph 0.00 in Snow Light Snow
12:35 PM 30.2 °F 16.5 °F 28.4 °F 93% 29.75 in 1.0 mi North 24.2 mph 33.4 mph 0.00 in Snow Light Snow
12:42 PM 30.2 °F 16.2 °F 28.4 °F 93% 29.75 in 1.0 mi North 25.3 mph 33.4 mph 0.00 in Snow Light Snow
12:53 PM 30.9 °F 16.9 °F 28.9 °F 92% 29.79 in 1.0 mi North 26.5 mph 34.5 mph 0.00 in Snow Light Snow
1:53 PM 30.9 °F 16.9 °F 28.9 °F 92% 29.76 in 0.2 mi North 26.5 mph 38.0 mph 0.00 in Fog , Snow Snow
2:26 PM 30.2 °F 14.7 °F 28.4 °F 93% 29.71 in 0.2 mi North 32.2 mph 43.7 mph 0.00 in Fog , Snow Snow
2:53 PM 30.0 °F 14.9 °F 28.9 °F 96% 29.76 in 0.2 mi North 29.9 mph 41.4 mph 0.00 in Fog , Snow Snow
3:07 PM 30.2 °F 14.7 °F 28.4 °F 93% 29.72 in 0.2 mi North 32.2 mph 46.0 mph 0.00 in Fog , Snow Snow
3:53 PM 30.0 °F 14.5 °F 28.9 °F 96% 29.78 in 0.2 mi North 32.2 mph 44.9 mph 0.00 in Fog , Snow Snow
4:53 PM 30.0 °F 14.5 °F 28.9 °F 96% 29.79 in 0.2 mi North 32.2 mph 40.3 mph 0.00 in Fog , Snow Snow
5:53 PM 30.0 °F 15.2 °F 28.0 °F 92% 29.82 in 0.2 mi North 28.8 mph 36.8 mph 0.00 in Fog , Snow Heavy Snow
6:37 PM 30.2 °F 15.7 °F 28.4 °F 93% 29.79 in 0.8 mi North 27.6 mph 34.5 mph 0.00 in   Mist
6:53 PM 30.0 °F 15.7 °F 28.9 °F 96% 29.85 in 0.5 mi North 26.5 mph 33.4 mph 0.00 in Fog , Snow Snow
7:07 PM 30.2 °F 15.9 °F 28.4 °F 93% 29.81 in 0.8 mi North 26.5 mph 35.7 mph 0.00 in Snow Light Snow
7:38 PM 30.2 °F 16.5 °F 28.4 °F 93% 29.81 in 1.0 mi North 24.2 mph 34.5 mph 0.00 in Snow Light Snow
7:53 PM 30.0 °F 16.3 °F 28.9 °F 96% 29.86 in 1.0 mi North 24.2 mph 36.8 mph 0.00 in Snow Light Snow
8:53 PM 30.9 °F 17.5 °F 28.9 °F 92% 29.87 in 1.2 mi North 24.2 mph 32.2 mph 0.00 in Snow Light Snow
9:53 PM 30.0 °F 16.9 °F 28.9 °F 96% 29.88 in 1.8 mi NNW 21.9 mph 28.8 mph 0.00 in Snow Light Snow
10:31 PM 30.2 °F 17.4 °F 28.4 °F 93% 29.83 in 2.0 mi NNW 20.7 mph - 0.00 in Snow Light Snow
10:42 PM 30.2 °F 17.4 °F 28.4 °F 93% 29.83 in 1.5 mi NNW 20.7 mph 28.8 mph 0.00 in Snow Light Snow
10:53 PM 30.0 °F 17.2 °F 28.0 °F 92% 29.87 in 1.5 mi NNW 20.7 mph - 0.00 in Snow Light Snow
10:58 PM 30.2 °F 17.4 °F 28.4 °F 93% 29.83 in 1.8 mi NNW 20.7 mph - 0.00 in Snow Light Snow
11:11 PM 30.2 °F 17.8 °F 28.4 °F 93% 29.83 in 1.8 mi NNW 19.6 mph 28.8 mph 0.00 in Snow Light Snow
11:33 PM 30.2 °F 17.8 °F 28.4 °F 93% 29.82 in 2.5 mi North 19.6 mph - 0.00 in Snow Light Snow
11:53 PM 30.0 °F 17.2 °F 28.0 °F 92% 29.87 in 2.5 mi North 20.7 mph - 0.00 in Snow Light Snow
11:58 PM 30.2 °F 17.8 °F 28.4 °F 93% 29.82 in 3.0 mi North 19.6 mph - 0.00 in   Overcast